Wind_Speed
9 8 7 7 6 6 5 4 3 2 2 2 3 3 4 5 6 7 8 9 9 8 8 8 9 11 12 13 14 15 16 17 16 16 16 16 17 17 17 17 17 17 17 17 17 18 18 18 19 19 20 21 21 21 20 19 19 19 20 22 25 28 30 31 31 29 27 25 23 21 19 17 16 14 13 12 11 11 10 10 9 9 9 8 8
13 11 9 8 7 6 5 4 3 2 1 0 0 1 1 2 3 4 5 6 7 7 6 6 6 8 9 10 10 11 12 14 14 14 14 14 14 14 15 15 16 16 16 16 16 16 16 16 16 16 17 18 19 19 19 19 19 19 19 20 22 24 26 28 29 28 27 25 23 21 18 17 15 13 12 11 9 8 8 7 7 6 6 6 6
17 15 13 11 9 7 7 6 6 5 4 3 2 2 1 1 1 1 2 3 3 4 4 4 4 5 6 7 7 8 8 10 11 12 12 12 11 12 12 13 13 14 14 14 14 14 14 14 15 15 15 15 16 16 17 17 18 18 18 18 19 21 23 24 25 26 25 24 22 20 18 16 14 12 11 9 8 7 6 5 4 4 3 3 3
20 18 17 16 14 12 11 10 9 8 8 7 6 5 4 3 2 2 2 2 1 1 0 1 2 3 4 5 6 6 6 7 7 8 9 9 9 9 9 10 11 12 12 13 13 13 13 12 13 13 13 13 14 14 14 15 15 16 16 17 17 19 20 21 22 22 23 22 21 19 17 15 13 12 10 9 7 6 4 3 2 2 2 3 4
22 20 19 19 17 16 16 15 14 12 12 11 10 10 9 8 7 6 6 5 5 5 5 4 4 4 5 4 4 4 4 5 5 5 6 6 7 7 7 7 8 9 10 11 11 11 12 11 11 11 11 11 12 12 12 13 13 13 14 15 15 16 17 18 19 20 20 20 19 18 17 15 13 12 10 9 8 6 5 5 5 5 6 7 8
25 23 22 21 20 19 18 18 17 16 16 15 14 13 13 13 12 10 9 8 8 8 8 8 7 8 8 8 6 5 4 4 5 5 5 4 5 6 6 5 5 5 6 7 8 9 9 10 10 9 9 8 9 9 10 11 12 12 12 13 14 14 15 16 17 17 18 18 18 17 16 15 14 12 11 10 9 8 8 8 8 8 9 10 11
26 25 24 23 23 22 20 20 20 20 19 19 18 17 16 16 16 15 15 13 12 11 11 11 11 11 12 12 11 9 7 6 6 6 6 6 5 5 5 4 4 2 2 4 5 6 7 8 8 8 8 7 6 6 7 8 9 10 11 11 11 12 12 13 14 15 15 15 14 14 14 13 12 11 10 9 9 9 9 10 10 10 11 12 14
29 27 26 25 25 24 23 23 23 23 22 21 21 20 19 19 19 20 20 19 17 15 14 13 14 14 14 14 15 14 13 11 10 9 8 7 7 8 7 6 5 6 4 1 1 3 4 5 5 5 5 5 5 4 4 4 5 6 7 8 9 9 9 10 11 11 12 12 12 12 11 11 10 9 9 8 8 7 7 8 9 9 10 10 11
34 32 30 28 26 25 25 25 25 25 24 24 23 23 23 23 23 23 23 21 21 19 18 16 15 15 15 15 16 16 16 16 15 14 12 10 10 10 9 8 8 9 9 7 5 3 2 1 2 2 2 2 2 2 1 1 3 4 4 5 5 5 5 5 7 8 9 10 11 11 11 11 9 8 8 8 8 7 6 5 5 6 6 6 6
38 36 34 32 29 27 26 27 28 27 26 25 24 24 26 26 26 26 25 23 22 21 21 20 19 18 17 16 17 17 16 17 17 16 15 14 13 13 12 12 12 12 13 12 11 10 8 6 5 3 3 2 3 3 3 3 3 3 3 3 2 2 3 3 4 5 5 6 8 9 11 10 9 9 10 10 10 9 9 7 6 5 4 3 4
42 40 37 34 33 31 29 30 31 30 28 26 26 27 28 28 28 28 27 25 24 23 23 23 22 21 20 19 19 19 19 19 18 18 18 17 17 17 17 17 16 16 17 16 14 13 12 10 9 8 7 7 7 6 6 6 6 7 6 6 5 5 5 6 6 7 7 7 7 9 10 11 11 11 12 12 12 12 12 11 9 7 5 4 3
46 44 39 36 36 36 34 33 34 33 30 28 28 29 30 30 30 30 30 29 28 26 26 26 26 25 24 23 23 23 23 22 21 21 22 21 19 19 20 20 19 18 19 18 17 17 16 14 14 14 14 14 12 10 10 9 9 9 9 9 9 9 10 10 10 11 11 11 10 10 11 12 13 13 14 14 14 14 14 13 13 11 8 6 5
47 45 42 39 39 40 39 38 37 36 34 32 31 31 32 32 30 30 31 33 32 29 28 29 29 29 28 27 26 26 25 22 21 23 24 23 21 20 20 21 20 20 21 21 21 20 20 19 18 18 19 18 17 16 14 13 12 13 13 14 14 13 13 12 13 14 15 15 14 14 14 15 15 15 16 16 16 16 16 16 16 15 13 11 10
47 46 45 42 42 42 42 42 40 40 39 37 35 33 33 33 31 30 30 32 32 30 29 30 30 30 30 29 29 29 28 25 24 25 26 25 24 23 22 22 22 22 23 24 25 25 24 23 21 20 21 20 20 20 20 18 19 20 19 20 20 19 18 17 17 18 19 19 19 19 18 18 18 19 20 20 20 20 20 19 19 19 18 17 15
49 48 47 45 44 45 46 44 43 44 43 40 38 37 35 33 33 33 32 32 32 32 31 32 32 31 31 31 31 32 32 29 29 29 29 29 28 27 27 27 26 26 26 25 26 28 28 26 25 25 25 24 24 24 23 23 24 24 24 25 25 24 24 25 25 25 25 25 24 23 21 20 20 22 25 26 25 25 25 25 25 25 25 25 23
52 51 50 48 47 48 48 47 47 48 46 43 41 39 37 35 34 33 33 35 36 36 36 37 37 35 33 33 34 35 35 34 33 34 34 33 33 32 32 31 30 30 30 28 28 28 29 28 28 28 28 28 29 29 28 28 28 28 28 27 27 28 30 32 32 30 31 31 30 28 27 26 26 27 30 31 30 30 30 30 30 31 31 32 31
56 54 52 51 51 50 49 49 50 50 48 45 43 41 40 39 37 33 34 37 38 38 40 42 43 42 39 37 37 38 39 38 37 37 38 38 38 37 36 35 35 35 34 33 32 31 31 32 32 31 31 32 32 32 33 33 33 32 31 30 30 33 35 36 36 34 34 35 35 35 34 33 33 34 35 36 36 36 36 36 36 37 37 37 37
58 57 55 54 54 53 51 50 51 51 50 47 45 44 43 42 41 37 37 40 41 40 41 43 45 45 45 43 41 42 43 42 40 40 41 41 41 41 40 40 39 39 39 38 37 36 36 36 37 37 36 36 35 35 36 37 36 35 34 33 35 36 37 38 39 39 38 38 38 39 39 39 39 39 40 41 41 42 42 42 42 43 43 43 44
57 58 58 58 57 56 54 53 52 53 53 50 48 49 47 45 46 44 42 43 45 44 44 45 44 43 45 47 45 44 45 45 43 43 43 44 45 45 44 44 43 43 43 42 42 41 40 40 41 41 42 41 40 39 39 39 39 39 38 37 39 40 39 39 41 42 42 42 42 41 42 44 45 45 44 44 45 46 46 46 47 48 48 48 48
58 58 60 61 61 60 59 58 55 55 55 54 53 54 53 50 49 50 48 47 47 47 47 47 45 43 46 50 50 48 48 48 47 46 45 46 48 48 48 47 47 47 46 46 45 45 44 44 44 44 45 46 45 44 43 42 43 43 43 42 42 43 43 43 43 44 45 45 46 46 44 45 47 47 46 45 45 46 46 46 49 52 52 52 53
62 61 61 62 62 62 63 62 60 59 59 58 57 57 57 54 52 52 51 50 49 50 50 49 48 47 48 51 53 53 53 52 51 50 50 51 51 50 50 50 50 51 51 50 48 47 46 46 46 46 47 48 49 49 47 46 46 47 48 48 46 47 48 48 48 48 47 46 48 50 50 48 48 48 48 47 46 46 46 48 51 52 53 54 55
69 67 65 64 64 63 63 64 64 64 63 62 60 61 61 59 56 55 55 54 53 53 53 54 54 53 52 53 57 59 59 57 56 54 55 57 56 55 54 54 53 54 55 55 53 51 49 48 48 48 49 50 51 52 51 50 49 50 51 53 52 52 53 53 53 53 52 51 53 54 54 53 53 52 51 51 50 49 51 53 53 52 53 55 56
76 74 72 69 68 66 66 65 65 66 66 65 64 64 64 63 61 59 59 59 58 57 57 58 59 60 58 58 62 64 63 63 62 60 59 60 61 61 60 59 58 58 59 60 59 56 53 51 49 49 50 52 53 54 55 56 55 54 55 56 57 58 58 59 59 57 56 57 57 57 56 56 56 56 56 56 55 55 56 58 58 57 57 58 60
78 78 77 74 72 71 71 70 69 69 69 69 68 68 68 68 67 65 64 63 61 60 59 59 60 62 62 61 64 67 66 66 67 65 62 63 65 65 64 63 62 61 62 63 62 60 58 55 53 52 53 54 56 56 58 59 60 60 59 59 60 61 62 62 63 62 60 59 59 58 58 59 60 59 59 60 60 60 62 64 64 61 59 60 63
79 78 79 78 77 75 75 75 75 75 74 74 73 72 71 71 71 70 69 68 67 65 64 62 61 62 63 64 66 68 69 69 69 68 67 67 68 68 67 65 65 64 64 65 65 64 63 60 58 57 57 58 60 61 61 62 63 63 64 63 63 63 64 64 65 65 65 63 62 62 62 63 63 63 63 64 65 65 67 69 69 66 64 64 66
81 80 80 80 80 78 78 78 78 78 78 78 77 77 75 74 73 74 73 73 72 71 70 70 68 68 69 70 71 72 73 73 73 73 71 70 70 70 70 68 67 67 67 68 68 68 68 67 64 62 61 63 65 66 67 68 68 68 68 68 67 67 67 67 68 68 67 67 67 67 66 66 67 67 68 69 69 69 70 71 71 71 70 70 70
83 82 82 82 81 81 80 80 80 79 79 79 79 80 80 78 77 77 77 77 76 75 75 76 76 76 76 75 75 76 77 77 77 78 77 75 75 75 76 75 74 73 73 72 72 71 71 71 70 68 68 68 69 70 71 72 73 73 73 73 72 71 71 71 71 71 70 70 70 70 71 71 70 71 72 73 73 73 73 73 73 73 73 74 74
85 84 84 84 84 83 82 82 82 82 82 82 83 83 83 83 82 81 81 80 80 79 78 78 79 80 80 80 79 80 81 81 80 80 80 80 80 81 81 82 82 81 80 79 77 76 75 75 75 74 75 75 74 74 74 75 76 77 78 77 77 76 75 74 74 75 74 74 73 73 74 75 75 75 76 76 75 74 73 73 73 74 75 76 76
89 87 86 86 86 86 86 85 86 86 85 85 86 86 87 86 86 86 86 86 85 84 83 83 82 82 83 83 83 83 84 85 84 84 83 83 83 83 84 85 86 87 87 86 85 84 82 81 80 80 80 80 80 79 79 78 78 80 81 81 81 81 80 79 78 78 79 78 78 77 77 78 79 79 79 79 78 76 75 75 75 75 76 77 77
95 92 90 89 89 89 89 89 89 89 89 89 88 88 89 89 90 90 90 90 90 89 89 89 89 88 88 87 87 88 89 90 91 91 91 91 90 89 89 89 89 90 91 91 91 91 90 89 88 87 87 86 85 85 84 83 82 82 83 84 85 85 85 85 84 83 83 83 83 83 82 82 82 83 83 84 83 83 82 82 81 82 83 84 84
102 99 96 94 93 93 93 93 92 91 91 91 92 92 92 92 93 94 95 95 94 93 92 92 92 92 93 93 94 95 96 97 98 99 99 99 98 97 96 95 94 94 94 94 94 94 95 95 95 94 93 93 92 91 90 89 88 87 86 87 88 89 90 90 90 90 89 89 88 89 88 87 87 87 87 88 89 89 90 90 91 92 93 93 93
107 107 104 101 99 97 95 95 95 94 94 94 95 96 96 96 96 97 98 98 97 96 95 94 93 93 94 95 97 99 100 101 102 103 104 104 104 104 103 102 101 100 99 99 99 99 99 100 100 100 99 99 98 98 96 95 94 93 92 91 92 93 93 94 95 95 95 95 94 94 93 92 92 91 91 91 92 93 94 95 97 98 99 99 99
111 111 111 111 110 108 105 103 101 99 98 98 98 98 99 99 99 98 100 101 101 100 99 98 97 97 97 97 98 100 102 103 105 106 107 107 108 108 108 107 107 106 105 105 104 104 104 104 104 103 103 102 102 102 101 100 98 97 96 96 95 96 97 98 98 99 99 100 100 99 98 98 97 96 96 96 97 99 100 100 101 103 104 104 104
116 115 114 114 114 115 115 114 113 110 108 106 105 104 103 102 102 101 102 102 103 104 104 104 103 103 102 102 102 101 101 103 105 106 108 109 109 110 110 111 110 110 110 110 109 108 107 106 106 105 105 105 105 104 104 103 102 101 100 100 99 99 100 101 102 102 103 104 104 104 103 102 102 103 103 104 105 106 108 108 109 110 111 111 111
120 120 120 119 118 117 117 117 118 119 118 117 117 117 115 113 111 109 108 107 107 107 107 108 108 108 107 107 107 106 105 104 105 106 107 108 110 110 111 111 111 110 111 111 111 110 109 108 107 106 105 105 105 106 106 105 105 105 104 104 104 103 103 103 104 105 106 107 107 108 108 108 108 109 110 111 112 113 114 115 116 117 118 118 117
118 120 121 122 123 122 122 121 121 121 122 123 124 125 125 124 123 121 119 117 116 115 114 113 113 113 112 112 111 110 109 108 107 107 107 108 109 110 110 110 110 110 111 111 111 111 110 110 109 108 107 107 106 106 106 106 106 107 107 107 107 107 107 107 107 108 109 110 111 112 112 114 115 116 117 119 120 120 120 121 121 122 122 121 120
114 116 118 119 121 122 123 124 124 124 125 125 126 127 128 129 129 128 127 126 126 125 124 122 120 119 118 118 117 116 115 114 113 112 111 110 110 110 111 111 112 112 112 112 112 111 111 111 111 110 110 110 109 109 108 108 108 108 109 109 109 110 110 111 112 112 113 114 115 116 117 118 120 121 122 123 124 124 124 124 123 123 123 122 122
113 114 115 116 117 118 120 121 122 123 124 125 126 127 128 129 130 131 131 131 131 131 131 130 129 128 126 124 123 123 122 121 120 119 118 117 116 115 115 114 115 115 115 115 115 114 113 113 113 114 114 114 114 114 114 114 113 113 113 114 114 115 115 116 116 117 118 118 119 120 121 122 123 123 124 124 125 125 125 125 125 125 124 124 124
114 114 115 115 116 117 118 119 120 121 122 123 124 125 127 128 129 130 131 132 133 133 133 134 134 135 135 134 133 132 130 129 128 127 126 125 124 123 122 122 121 120 120 119 119 118 118 117 117 117 117 118 118 118 117 117 118 118 119 119 119 120 120 120 120 120 120 121 121 121 122 122 123 123 124 124 124 125 125 125 125 125 124 124 124
115 115 116 116 117 118 118 119 120 121 121 122 123 124 125 126 127 128 129 131 132 133 134 135 135 136 137 139 140 140 140 139 137 136 134 133 132 131 131 131 131 130 129 128 127 126 125 125 124 123 122 122 122 122 122 122 123 123 124 124 125 125 125 125 124 124 124 124 124 124 125 125 126 126 126 126 126 127 127 128 128 129 129 130 132
116 116 117 118 118 119 120 120 121 121 122 123 123 124 125 125 126 127 128 129 131 132 133 134 135 136 137 138 140 142 144 145 144 144 143 142 141 140 139 139 138 138 138 138 137 136 136 135 134 133 132 131 131 131 131 132 132 132 132 132 132 132 132 132 131 131 131 130 131 131 131 132 133 133 134 135 135 136 136 137 138 140 141 142 143
115 116 117 118 119 120 121 121 122 122 123 124 124 125 126 127 127 128 129 130 131 132 133 134 135 135 136 137 139 141 143 144 145 146 146 147 148 148 149 148 148 147 146 146 146 145 145 144 143 143 142 142 141 141 141 142 142 142 142 142 142 142 142 141 141 141 141 141 141 141 141 141 142 143 144 145 146 147 148 148 149 150 150 151 151
110 112 114 116 118 119 121 122 122 123 124 125 126 126 127 128 129 129 130 131 132 133 134 135 136 136 136 137 138 140 142 143 144 145 146 147 148 149 150 152 153 153 154 154 154 154 153 153 153 153 153 153 153 153 152 152 152 151 151 150 150 151 151 151 150 150 151 152 152 152 152 152 152 153 154 155 156 157 157 157 157 157 156 156 155
100 103 106 109 112 114 116 118 120 122 123 125 126 127 128 129 130 131 131 132 133 134 135 136 137 138 138 139 140 141 142 143 143 144 145 146 147 148 148 149 150 152 153 154 155 156 157 158 159 159 160 161 161 161 161 161 161 160 159 159 159 158 158 158 158 158 159 160 160 160 160 160 160 160 161 161 162 162 162 162 162 161 161 160 159
90 92 95 98 101 104 107 110 113 115 118 120 123 125 127 128 130 131 132 133 134 136 137 138 139 139 140 141 141 142 143 144 145 145 146 147 147 148 148 149 150 150 151 152 153 154 155 156 157 158 158 159 160 160 161 161 161 161 161 161 161 161 161 161 161 161 161 161 162 162 162 163 163 164 164 165 165 166 166 166 166 165 165 164 163
80 83 86 88 91 94 97 100 103 106 109 111 115 118 120 123 125 127 129 131 133 135 137 138 139 140 141 142 143 143 144 145 146 147 147 148 148 149 149 150 150 151 152 152 153 154 155 155 156 156 157 157 158 158 158 159 159 159 159 159 159 159 159 159 159 159 159 159 159 159 159 160 160 161 162 163 164 164 165 165 166 165 165 165 164
71 73 76 79 82 84 87 90 93 96 99 101 104 107 110 113 116 119 121 124 126 129 132 134 136 138 139 141 142 144 145 146 147 147 148 149 149 150 150 151 151 151 152 153 153 154 155 155 155 156 156 157 157 157 158 158 158 158 158 158 158 158 158 158 158 158 158 158 158 158 158 158 158 158 159 159 160 160 161 161 162 162 162 162 161
63 66 68 71 73 75 78 81 83 86 88 91 94 96 99 102 105 108 110 113 116 119 122 125 128 130 133 135 137 139 140 142 143 145 146 147 148 149 150 151 151 152 152 153 154 155 155 156 156 156 156 157 157 157 158 158 158 158 157 158 158 158 158 158 158 157 157 157 157 157 157 157 157 157 157 157 157 158 158 158 158 158 158 159 159
59 61 63 65 67 69 71 73 76 78 80 82 85 87 90 92 95 98 100 103 106 109 111 114 117 120 123 125 126 128 130 132 134 136 137 139 140 141 142 143 144 145 146 147 148 149 150 151 152 152 153 153 154 155 155 156 156 156 156 156 157 157 157 157 157 157 157 157 157 157 157 157 157 157 156 156 157 157 157 157 156 157 156 156 156
57 59 60 63 65 67 69 71 73 75 77 79 80 82 84 87 89 92 94 97 99 102 104 106 109 111 113 115 116 118 120 121 123 125 126 127 128 129 130 131 132 133 133 134 135 135 136 137 138 138 139 140 141 141 142 142 143 143 143 144 144 145 145 146 146 146 146 147 147 147 148 148 148 149 149 149 149 149 149 149 149 149 149 148 148
59 60 62 64 66 68 70 72 73 75 77 78 80 81 83 85 87 89 91 93 96 98 100 101 103 105 106 108 109 111 112 113 114 115 116 117 118 119 120 120 121 121 122 123 123 123 124 124 125 125 126 126 127 128 128 128 128 129 129 129 129 129 129 129 129 129 130 130 130 131 131 131 132 132 132 132 132 133 133 133 133 133 132 132 132
Wind_Direction
222 223 218 214 210 201 189 175 157 133 107 92 88 87 86 85 84 78 71 64 59 56 53 49 45 47 53 60 63 64 66 67 68 72 75 77 78 79 80 81 80 78 76 76 75 76 76 76 76 78 82 88 94 99 104 109 115 122 132 143 153 163 170 172 172 172 172 171 171 169 167 164 162 159 155 151 146 140 133 126 119 113 106 101 95
220 221 224 227 227 224 223 223 218 213 226 278 5 44 55 58 63 68 68 66 63 57 50 41 32 30 34 42 49 53 56 57 58 60 63 69 73 75 76 77 77 77 76 75 75 76 77 79 79 79 81 85 91 98 104 110 116 121 129 140 150 159 167 173 175 176 176 176 176 174 172 170 169 168 167 164 160 153 145 135 125 117 109 101 92
218 217 220 225 227 229 235 237 238 240 246 254 260 268 291 345 2 22 47 59 63 60 50 34 16 7 7 14 22 30 37 42 45 48 50 54 60 66 71 73 74 73 73 73 72 73 75 78 81 83 84 86 88 93 100 107 114 121 128 137 147 156 164 171 176 179 180 180 179 177 175 174 174 175 175 175 173 168 161 150 139 128 114 96 69
222 222 223 225 225 225 228 231 236 241 245 247 248 248 250 248 244 243 249 249 252 264 312 350 335 328 329 339 347 354 3 14 23 30 34 38 41 49 58 65 67 67 66 65 65 67 68 70 76 82 85 89 91 93 96 102 109 117 126 134 142 152 160 168 175 180 183 185 184 183 181 180 180 182 184 186 187 187 191 195 204 232 277 305 316
226 228 231 234 234 234 234 233 232 233 237 241 243 244 246 248 242 234 232 236 241 249 252 255 269 284 287 292 307 316 323 333 343 353 5 17 22 23 30 43 53 57 57 57 57 57 58 58 60 68 78 86 92 96 100 103 108 115 122 130 139 148 157 165 172 178 183 187 190 191 191 192 193 195 199 203 207 215 228 247 262 276 288 298 306
229 230 233 238 241 243 245 246 244 241 238 238 239 240 245 252 255 253 248 243 239 242 250 255 260 270 275 276 274 271 275 284 292 301 311 328 353 3 3 3 15 38 55 59 56 55 56 56 52 50 56 71 86 97 102 106 109 114 120 128 136 144 152 160 167 173 179 184 189 193 197 201 204 208 214 220 227 236 247 260 272 283 294 302 307
228 231 234 237 240 241 244 250 252 251 249 247 245 244 246 251 257 261 261 258 251 245 245 250 254 262 269 273 272 269 264 261 263 269 274 280 295 311 315 310 308 323 37 65 64 59 54 54 56 51 44 46 61 83 99 106 110 114 118 122 128 136 144 152 160 167 173 178 184 188 193 198 205 213 220 227 234 243 253 262 270 280 289 296 302
228 230 233 237 240 242 243 246 249 252 255 256 257 256 255 256 259 262 265 265 262 258 253 251 254 259 265 269 272 272 268 263 259 258 259 265 269 272 276 277 273 272 269 268 61 59 48 42 45 51 47 37 33 45 73 97 109 114 117 119 123 129 135 144 152 159 166 172 176 180 186 191 199 208 217 225 232 240 249 257 266 275 283 291 299
231 231 234 237 241 244 246 248 250 253 254 255 258 260 260 260 260 263 265 267 266 262 258 257 258 260 263 266 270 272 269 265 262 257 256 256 254 257 267 273 276 275 268 263 265 273 291 342 357 12 25 23 5 349 2 118 128 128 127 127 132 138 146 155 160 163 166 171 175 177 179 182 187 202 212 214 219 222 225 233 242 256 269 278 287
234 234 235 236 239 242 245 248 249 249 251 253 256 259 261 261 261 263 264 265 266 263 260 260 261 262 262 263 264 265 266 265 262 258 257 257 254 253 255 257 259 263 263 264 266 267 266 260 258 269 282 272 258 252 247 237 214 192 177 176 182 185 193 201 201 197 192 194 197 194 192 189 193 209 216 213 213 212 210 211 213 216 225 227 233
234 235 235 235 236 239 243 245 247 246 247 250 252 255 259 261 261 261 262 262 262 262 260 259 260 261 260 260 259 257 256 256 256 257 257 256 252 248 247 246 245 247 252 258 263 264 263 254 247 250 259 259 255 252 251 249 245 238 230 221 216 222 230 234 237 237 232 231 233 229 221 211 209 217 221 220 220 219 213 210 207 200 192 181 199
232 234 234 234 235 236 236 239 243 244 242 244 246 248 252 257 259 259 259 258 258 259 260 260 259 258 257 255 254 254 253 252 254 257 259 259 256 253 251 251 249 248 248 250 253 256 255 249 244 245 248 250 251 252 252 254 257 260 258 245 226 222 230 238 242 243 240 239 239 238 234 228 223 224 224 223 225 225 222 218 215 211 211 213 226
232 233 233 234 235 236 235 235 239 242 240 239 241 242 243 249 256 261 261 260 257 256 259 261 260 260 259 257 256 255 253 251 253 257 258 259 258 256 257 259 257 254 250 246 245 247 248 246 247 248 248 248 247 246 246 247 249 256 262 260 251 242 238 239 241 242 241 239 236 234 234 236 234 231 228 227 229 231 230 228 227 225 227 232 241
233 233 233 233 234 236 237 237 239 241 241 239 239 239 239 242 248 254 258 258 256 255 256 258 260 261 261 261 260 259 255 250 249 252 252 252 252 252 252 253 255 257 256 250 246 246 246 246 248 250 251 249 247 245 244 244 242 243 246 251 253 254 254 255 253 251 248 243 238 235 234 237 244 248 244 239 237 239 240 241 243 244 245 248 254
234 234 234 234 235 238 239 237 238 240 240 240 241 242 241 242 246 249 250 251 251 250 250 254 257 259 259 258 258 257 255 251 250 250 249 248 250 252 251 248 248 254 258 256 251 249 248 248 248 249 251 252 250 248 248 248 245 244 244 244 245 249 252 254 253 253 254 251 247 245 243 245 255 261 257 250 245 244 247 250 253 258 260 260 262
235 236 236 235 236 238 239 238 238 239 240 243 244 243 242 243 245 246 246 246 246 246 247 251 254 256 258 259 257 256 254 251 251 251 251 251 251 252 253 252 250 251 253 254 254 251 250 250 251 250 250 252 252 250 251 252 251 250 250 248 247 248 247 246 246 247 250 251 250 251 252 253 255 257 257 257 254 251 251 253 255 259 263 264 264
236 237 235 235 235 238 240 240 240 240 241 244 244 242 241 241 243 243 243 243 244 246 249 252 255 257 257 257 257 257 254 252 252 253 253 253 253 253 253 253 252 251 250 250 251 251 250 250 252 251 250 252 253 253 252 253 252 252 252 251 252 251 248 246 247 248 248 248 249 250 252 252 252 253 255 257 259 258 257 257 257 259 261 262 263
235 235 233 233 235 237 239 240 240 240 242 244 243 241 239 240 241 242 242 243 245 246 249 252 255 258 258 255 253 256 256 253 253 255 254 253 254 255 255 255 254 253 251 249 249 249 250 250 252 252 251 251 252 253 252 252 250 250 250 250 252 253 250 250 252 253 253 254 254 252 251 251 251 252 253 255 258 259 260 260 259 259 260 262 263
232 232 231 232 234 237 239 239 238 239 241 242 241 240 239 240 240 240 241 244 247 247 248 251 253 256 257 256 253 254 254 252 251 253 254 254 255 256 257 257 257 256 254 251 249 249 249 250 252 253 253 252 252 252 252 250 248 246 246 247 250 251 251 251 254 257 257 259 259 257 255 254 255 255 256 258 259 260 260 261 261 261 261 262 263
233 232 231 232 234 237 239 240 239 239 241 242 241 239 239 240 242 242 241 243 245 246 247 250 251 252 254 257 257 255 254 251 249 251 253 254 254 256 257 256 256 256 255 253 251 250 249 250 252 253 254 254 253 253 252 250 247 246 245 245 246 249 250 251 253 257 258 259 261 261 259 258 258 258 258 258 259 260 261 264 265 263 262 262 264
235 234 234 234 236 238 239 240 239 239 241 242 241 240 239 240 244 245 243 242 243 244 244 244 245 245 248 254 257 257 255 251 249 250 253 254 254 255 256 256 255 255 255 253 251 250 250 250 252 254 255 256 256 256 256 253 250 247 247 247 247 248 250 251 252 254 257 259 260 261 261 260 258 258 258 256 257 260 263 266 267 266 264 264 265
237 236 237 237 238 238 238 238 238 238 240 241 242 242 241 241 243 245 244 243 244 245 244 242 240 241 243 247 251 254 255 254 251 250 252 253 253 254 257 258 257 255 254 253 252 251 250 251 253 255 256 257 258 260 260 259 256 252 250 249 249 250 251 252 253 253 254 255 256 258 260 261 260 259 258 257 259 263 266 267 267 267 266 266 267
239 239 239 240 240 238 237 237 238 238 239 241 242 243 243 242 242 243 245 245 245 247 247 244 242 242 243 245 248 252 255 256 255 253 252 252 252 254 257 258 257 256 254 253 252 252 252 252 253 255 257 258 260 261 262 262 262 259 255 253 253 252 253 255 256 255 254 254 255 256 257 259 260 260 259 258 261 265 267 268 269 269 268 268 269
241 240 240 240 240 240 239 238 239 239 240 241 241 242 244 244 244 243 245 246 246 246 246 244 243 244 245 246 249 252 254 256 256 256 255 252 252 254 256 256 256 255 255 253 252 252 252 253 253 255 258 259 260 261 262 263 263 262 260 258 257 256 256 257 258 258 258 258 258 258 257 257 258 259 259 259 261 265 268 269 270 270 269 269 271
241 241 240 240 241 241 240 240 240 240 241 241 242 241 242 244 245 245 245 246 246 246 245 244 243 244 246 248 251 252 254 255 256 258 258 254 252 253 254 254 254 255 255 254 253 253 253 254 254 255 258 260 261 261 262 263 263 263 262 261 260 259 258 258 258 259 260 260 261 261 260 259 259 259 260 260 263 266 268 269 270 271 272 274 275
240 240 240 240 240 240 240 239 239 240 240 241 241 241 241 241 243 245 247 247 247 247 247 246 246 246 248 251 252 253 254 256 257 258 258 256 254 254 255 255 255 255 255 255 254 254 254 254 254 256 260 263 264 265 265 264 264 263 263 262 261 260 260 260 260 260 260 260 261 261 261 261 261 261 261 262 265 268 270 271 272 274 275 276 277
238 238 239 240 240 239 238 238 238 239 240 241 241 242 242 241 241 243 246 247 248 248 249 249 250 251 252 254 253 253 255 256 257 258 258 258 257 258 258 259 259 258 257 256 256 255 255 255 255 257 261 264 266 268 269 268 266 264 263 262 261 261 260 260 260 260 260 260 260 260 261 262 262 262 262 264 267 269 270 272 273 273 273 274 275
235 236 237 238 238 238 237 237 237 238 240 241 241 242 242 242 242 242 244 245 247 248 249 250 252 253 255 255 255 254 254 256 257 257 258 258 259 259 260 261 261 261 260 258 257 257 257 257 257 258 260 262 264 266 268 269 269 267 265 263 262 261 261 260 260 261 261 260 260 260 261 262 263 263 264 265 266 267 268 269 270 271 272 274 274
234 234 234 235 235 236 236 236 237 238 239 240 241 241 241 242 243 244 244 244 245 246 247 248 250 252 254 255 255 254 253 255 256 256 257 257 258 258 260 261 261 262 262 261 260 259 259 259 259 259 260 261 263 264 265 267 269 269 268 266 263 262 261 261 261 261 261 260 260 260 261 262 263 263 264 264 265 264 264 265 266 267 268 270 272
235 234 234 233 234 235 235 236 237 238 239 239 240 241 241 242 244 245 245 245 245 245 246 247 248 249 250 252 252 253 254 255 256 257 257 258 258 258 258 259 260 260 261 261 261 261 261 260 259 259 259 260 261 262 263 264 266 267 267 267 265 263 262 262 262 262 262 261 261 261 261 262 262 263 264 264 265 265 265 265 266 266 267 268 270
235 235 234 234 235 235 235 236 236 237 238 238 238 239 240 242 244 245 246 245 245 246 247 247 248 249 250 251 251 252 253 255 256 258 259 259 260 259 259 259 259 259 259 259 260 261 261 261 261 260 260 260 260 260 261 262 263 264 265 264 264 264 263 263 263 263 263 262 262 262 262 263 264 265 266 266 267 267 267 268 268 269 269 270 270
235 235 235 236 236 236 236 236 236 236 237 238 238 238 239 240 242 243 245 245 246 246 246 247 248 249 250 251 252 253 254 255 256 257 258 260 260 261 260 260 259 259 258 258 259 260 261 262 262 262 262 261 260 261 262 262 263 263 264 263 262 262 262 263 263 263 263 263 263 262 262 263 264 264 265 267 268 268 269 269 270 271 272 272 272
237 237 237 237 238 239 239 239 239 238 237 238 239 239 239 239 240 241 243 244 245 246 246 246 246 247 249 250 251 252 253 255 256 257 258 258 259 260 260 260 260 260 259 259 259 260 261 262 262 263 263 262 262 262 262 263 263 263 263 262 262 261 261 261 262 262 263 263 263 262 262 262 263 263 264 265 267 268 269 269 270 271 272 273 274
241 240 240 239 239 240 241 241 242 241 240 240 240 241 241 241 241 242 242 243 244 245 246 246 246 246 247 248 249 249 250 251 253 254 256 257 258 258 259 259 260 260 260 260 260 260 261 261 262 262 262 263 263 263 263 263 262 262 262 261 261 261 260 260 260 261 261 262 262 262 262 262 263 264 265 266 267 269 270 271 271 272 273 274 274
242 243 243 243 243 242 242 242 243 243 243 243 244 244 245 245 245 245 245 244 244 244 244 245 245 245 245 246 247 248 248 249 249 251 252 253 255 255 256 256 257 257 257 258 258 259 259 259 260 260 260 260 261 261 262 262 262 262 261 260 260 259 259 260 260 261 261 261 262 262 262 262 263 264 265 266 267 269 270 270 271 272 273 273 274
243 243 244 245 245 245 245 244 244 245 245 246 247 247 248 248 248 248 248 247 247 247 246 246 245 245 245 245 245 246 246 247 247 248 249 250 251 252 253 253 254 254 255 255 255 255 256 256 256 256 257 257 257 258 258 259 260 260 260 260 260 259 258 258 259 259 260 261 261 262 262 263 264 265 266 266 267 268 269 269 270 271 271 272 273
244 245 245 246 246 247 247 247 248 248 248 248 249 249 250 250 251 250 250 249 249 249 249 249 248 247 246 246 245 245 245 246 246 247 247 248 250 250 251 252 252 253 253 253 253 252 253 253 254 254 254 254 255 255 256 257 258 259 259 260 260 260 260 260 260 260 261 261 262 262 263 264 265 266 266 267 268 269 269 270 270 271 271 272 272
246 246 247 247 247 248 248 249 249 249 250 250 250 251 251 251 252 252 252 252 251 250 250 251 251 251 250 249 248 247 247 247 247 247 248 248 249 250 250 251 252 252 252 252 252 251 251 251 251 252 252 253 253 254 255 255 256 257 259 260 260 261 262 262 262 263 263 263 264 264 264 265 266 266 267 267 268 268 269 269 270 270 271 271 272
248 248 249 249 249 249 250 250 250 250 250 251 251 251 252 252 253 253 253 253 253 253 252 252 252 252 252 252 251 251 250 249 249 249 249 249 250 250 251 252 252 252 252 252 252 252 252 252 251 251 252 253 254 254 255 256 257 258 258 259 260 261 261 262 262 263 263 264 264 264 265 265 265 265 266 266 267 267 268 269 269 270 270 271 271
249 249 250 250 250 251 251 251 251 251 252 252 252 252 252 253 253 253 254 254 254 254 254 254 254 253 253 253 253 253 253 253 253 252 252 251 251 251 252 253 253 253 253 253 253 253 253 254 254 253 253 254 254 255 256 257 258 258 259 260 260 261 261 261 261 262 262 262 263 263 264 264 264 265 265 266 266 267 267 268 269 269 270 271 272
249 249 250 250 251 251 252 252 253 253 253 253 254 254 254 254 254 254 254 255 255 255 255 255 255 255 255 254 254 254 254 255 255 255 254 254 254 254 254 254 254 254 254 254 254 254 254 254 255 255 255 255 256 256 257 257 258 259 259 260 260 260 261 261 262 262 262 262 263 263 264 264 265 266 266 267 267 268 269 270 270 271 272 273 274
249 249 250 251 251 252 252 253 253 254 254 255 255 255 255 255 256 256 256 256 256 256 256 256 256 256 256 256 256 256 256 256 256 256 256 256 256 256 256 256 256 256 256 256 256 256 256 256 256 256 257 257 257 258 258 259 260 260 260 261 261 261 261 262 262 263 263 264 264 265 265 265 266 267 267 268 269 270 271 272 273 273 274 275 276
250 250 251 251 252 252 253 253 254 254 255 255 256 256 256 257 257 257 257 257 257 257 258 258 258 257 257 257 257 257 257 257 257 258 258 257 257 257 257 258 258 258 258 258 258 258 258 258 258 258 259 259 259 260 260 261 261 261 261 262 262 262 263 263 263 264 264 265 266 266 266 267 267 268 268 269 270 272 273 274 274 275 276 276 277
251 251 252 252 253 253 254 254 254 255 255 255 256 256 257 257 258 258 258 258 259 259 259 259 259 259 259 259 259 259 259 259 259 259 259 259 259 259 259 259 259 259 260 260 260 260 260 260 260 260 261 261 261 262 262 262 263 263 263 263 263 263 263 264 264 265 265 266 267 267 268 268 268 269 269 270 271 272 273 274 275 276 276 277 277
252 253 253 254 254 254 255 255 256 256 256 257 257 257 257 258 258 258 259 259 259 260 260 260 261 261 261 261 261 261 261 261 261 261 261 261 261 261 261 261 261 261 261 261 262 262 262 262 262 262 262 263 263 263 263 264 264 264 264 264 265 265 265 265 265 265 265 266 266 266 267 267 268 268 269 269 270 271 271 272 273 274 274 275 276
254 254 254 255 255 255 256 256 257 257 257 258 258 258 259 259 259 260 260 260 260 261 261 261 261 262 262 262 262 262 262 262 263 263 263 263 263 263 263 263 263 263 263 263 263 263 264 264 264 264 264 264 264 265 265 265 265 265 266 266 266 266 266 266 266 267 267 267 267 267 267 267 267 267 268 268 269 269 270 270 271 272 272 273 273
256 256 256 256 256 257 257 257 257 258 258 259 259 260 260 260 261 261 261 261 262 262 262 262 262 262 263 263 263 263 263 263 263 264 264 264 264 264 265 265 265 265 265 265 265 265 265 265 265 266 266 266 266 266 266 266 266 267 267 267 267 267 267 267 267 267 268 268 268 268 268 268 268 268 268 268 269 269 269 270 270 271 271 271 272
258 259 259 259 259 260 260 260 260 260 260 261 261 261 261 262 262 262 262 262 262 263 263 263 263 263 264 264 264 264 264 265 265 265 265 265 265 265 265 265 265 266 266 266 266 266 266 267 267 267 267 267 267 267 267 267 268 268 268 268 268 268 268 268 268 268 268 268 268 269 269 269 269 269 269 269 269 269 269 270 270 270 271 271 271
263 264 264 264 264 264 265 264 265 265 265 264 264 264 264 264 264 264 264 264 263 263 264 264 264 264 264 265 265 265 265 266 266 266 266 266 266 266 267 267 267 267 267 267 267 267 267 267 267 267 267 268 268 268 268 268 268 268 268 268 268 268 268 268 268 269 269 269 269 269 269 269 269 269 269 269 270 270 270 270 270 270 271 271 271
269 269 269 269 269 269 269 269 268 268 268 268 268 268 268 268 268 268 267 267 266 266 266 266 266 266 266 266 266 266 266 266 266 267 267 267 267 268 268 268 268 268 268 268 268 268 268 268 268 268 268 269 269 269 269 269 269 269 269 268 268 268 268 269 269 269 269 269 269 269 269 269 269 269 269 269 270 270 270 270 270 270 271 271 271
272 272 272 272 272 271 271 271 271 271 271 270 270 270 270 270 270 270 270 270 270 269 269 268 268 268 268 268 268 268 268 268 268 268 268 268 269 269 269 269 269 269 269 269 269 269 269 269 269 269 269 269 269 269 270 270 270 269 269 269 269 269 269 269 269 269 269 269 269 269 269 269 269 269 269 269 269 269 270 270 270 270 270 270 271
Height
11015 11015 11015 11015 11016 11016 11016 11016 11016 11017 11017 11017 11017 11017 11017 11017 11016 11017 11017 11017 11017 11016 11016 11016 11015 11015 11015 11014 11014 11014 11013 11013 11013 11012 11012 11011 11011 11011 11010 11010 11009 11009 11008 11007 11007 11006 11005 11004 11004 11003 11002 11001 11001 11000 11000 11000 11000 11001 11001 11002 11003 11003 11004 11005 11005 11005 11006 11006 11006 11006 11007 11007 11008 11008 11008 11009 11009 11009 11010 11010 11010 11010 11009 11009 11009
11013 11014 11014 11015 11015 11016 11016 11016 11016 11016 11017 11016 11017 11016 11017 11017 11017 11017 11017 11017 11017 11017 11017 11017 11016 11016 11016 11016 11015 11015 11015 11015 11015 11014 11014 11013 11013 11012 11012 11012 11011 11011 11010 11010 11009 11009 11008 11007 11006 11006 11005 11005 11004 11003 11003 11002 11002 11003 11003 11004 11004 11005 11006 11006 11007 11007 11007 11007 11007 11007 11007 11008 11008 11008 11009 11009 11009 11010 11010 11010 11010 11010 11010 11010 11009
11011 11012 11012 11013 11014 11015 11016 11016 11016 11016 11016 11016 11016 11016 11016 11016 11016 11017 11017 11017 11017 11017 11017 11017 11017 11016 11016 11016 11016 11016 11016 11016 11016 11016 11016 11015 11015 11014 11014 11013 11013 11013 11012 11012 11012 11011 11010 11010 11009 11008 11008 11007 11007 11006 11006 11005 11005 11005 11005 11005 11006 11006 11007 11008 11008 11008 11008 11008 11008 11008 11008 11009 11009 11009 11009 11010 11010 11010 11010 11010 11011 11010 11010 11010 11009
11009 11010 11010 11011 11012 11013 11013 11014 11015 11015 11015 11015 11016 11015 11015 11015 11015 11016 11016 11016 11017 11017 11017 11017 11016 11016 11016 11016 11016 11016 11017 11017 11017 11017 11017 11017 11017 11016 11016 11015 11015 11015 11014 11014 11014 11013 11013 11012 11012 11011 11010 11010 11009 11008 11008 11008 11008 11007 11007 11007 11007 11007 11008 11008 11009 11009 11010 11010 11010 11010 11010 11010 11010 11010 11010 11010 11010 11010 11011 11011 11011 11011 11010 11010 11009
11007 11008 11009 11009 11010 11011 11012 11012 11013 11013 11013 11014 11014 11014 11014 11014 11014 11014 11014 11014 11015 11015 11016 11016 11016 11016 11016 11016 11016 11016 11016 11017 11017 11017 11017 11018 11018 11018 11018 11018 11017 11017 11016 11016 11015 11015 11015 11015 11014 11014 11013 11012 11012 11011 11010 11010 11010 11009 11009 11009 11009 11009 11009 11009 11010 11010 11010 11011 11011 11011 11011 11011 11011 11011 11011 11011 11011 11011 11011 11010 11010 11010 11010 11010 11009
11005 11006 11007 11008 11009 11010 11011 11012 11012 11012 11012 11012 11012 11013 11013 11013 11013 11013 11013 11013 11013 11014 11014 11014 11015 11015 11015 11014 11015 11015 11015 11016 11016 11017 11017 11017 11018 11018 11019 11019 11019 11018 11017 11017 11016 11016 11015 11015 11015 11016 11015 11015 11014 11013 11013 11012 11011 11011 11011 11011 11010 11010 11010 11010 11010 11010 11011 11011 11011 11011 11011 11011 11012 11011 11011 11011 11011 11011 11010 11010 11010 11009 11009 11009 11008
11002 11003 11004 11006 11007 11008 11010 11011 11012 11011 11011 11011 11011 11012 11012 11013 11013 11013 11012 11012 11012 11012 11013 11013 11013 11013 11013 11013 11013 11014 11014 11015 11015 11016 11016 11017 11017 11018 11018 11019 11019 11019 11018 11018 11017 11017 11016 11016 11016 11016 11016 11016 11016 11016 11015 11014 11014 11013 11013 11012 11012 11012 11012 11011 11011 11011 11011 11011 11011 11011 11011 11011 11012 11012 11011 11011 11011 11010 11010 11010 11009 11009 11008 11008 11007
10999 11000 11002 11003 11005 11006 11008 11010 11010 11010 11010 11010 11010 11011 11012 11012 11012 11012 11012 11012 11012 11012 11011 11011 11011 11012 11012 11012 11012 11012 11013 11013 11014 11014 11015 11015 11016 11017 11018 11018 11018 11019 11019 11019 11018 11018 11018 11017 11017 11016 11016 11016 11017 11017 11016 11016 11015 11015 11014 11014 11014 11013 11013 11013 11013 11012 11011 11011 11011 11011 11011 11011 11011 11011 11011 11011 11010 11010 11009 11009 11008 11008 11007 11007 11006
10995 10997 10999 11000 11002 11004 11006 11007 11007 11007 11008 11008 11008 11009 11009 11010 11010 11010 11010 11010 11010 11010 11010 11010 11010 11010 11011 11011 11011 11011 11012 11012 11012 11012 11013 11014 11015 11016 11017 11017 11018 11019 11019 11019 11019 11018 11018 11018 11018 11017 11017 11016 11016 11016 11016 11016 11016 11016 11016 11015 11015 11014 11014 11014 11013 11013 11012 11011 11011 11010 11010 11010 11010 11011 11010 11009 11008 11008 11007 11007 11006 11006 11005 11005 11005
10991 10993 10995 10997 10999 11001 11002 11003 11003 11003 11004 11004 11005 11006 11006 11006 11007 11007 11007 11008 11008 11008 11008 11008 11008 11009 11009 11010 11010 11010 11010 11009 11009 11010 11010 11011 11012 11014 11014 11014 11015 11017 11018 11018 11018 11018 11018 11018 11017 11017 11017 11017 11016 11016 11016 11016 11016 11016 11016 11016 11015 11015 11014 11013 11013 11013 11012 11012 11011 11010 11009 11009 11010 11011 11009 11007 11006 11006 11005 11005 11004 11003 11003 11003 11003
10987 10989 10991 10993 10994 10996 10997 10997 10997 10998 10999 11000 11001 11002 11002 11003 11004 11004 11005 11005 11005 11005 11005 11005 11005 11006 11007 11007 11007 11007 11007 11007 11007 11007 11008 11008 11009 11010 11010 11010 11011 11013 11014 11015 11015 11016 11016 11016 11016 11016 11016 11016 11016 11016 11016 11016 11016 11016 11015 11015 11015 11014 11014 11013 11013 11012 11011 11011 11010 11010 11009 11008 11008 11008 11008 11006 11005 11004 11003 11002 11002 11001 11001 11000 11000
10981 10983 10986 10987 10988 10989 10991 10991 10991 10993 10995 10995 10996 10996 10998 10998 10999 11000 11001 11001 11000 11001 11001 11002 11002 11002 11002 11002 11002 11003 11003 11004 11006 11006 11006 11007 11007 11007 11007 11007 11008 11009 11010 11011 11012 11012 11013 11013 11013 11014 11014 11014 11014 11015 11015 11015 11015 11015 11015 11014 11014 11013 11013 11012 11012 11011 11010 11009 11009 11008 11008 11007 11006 11005 11005 11004 11004 11003 11002 11001 11000 10999 10999 10998 10998
10976 10978 10980 10982 10982 10983 10984 10985 10986 10988 10989 10990 10991 10992 10993 10994 10994 10995 10996 10996 10996 10996 10997 10998 10998 10998 10999 10999 11000 11000 11000 11002 11004 11004 11004 11004 11005 11005 11005 11005 11006 11008 11008 11008 11008 11008 11009 11009 11010 11011 11011 11011 11012 11013 11012 11012 11012 11012 11011 11012 11012 11011 11011 11010 11010 11010 11009 11008 11007 11006 11006 11006 11005 11004 11003 11002 11002 11001 11000 10999 10998 10998 10997 10996 10995
10970 10972 10974 10976 10978 10979 10979 10980 10982 10982 10983 10985 10987 10987 10988 10989 10990 10991 10991 10991 10991 10992 10993 10993 10994 10994 10995 10995 10996 10997 10997 10999 11000 11000 11000 11000 11001 11001 11002 11002 11003 11004 11005 11006 11006 11005 11005 11005 11006 11008 11008 11009 11009 11009 11009 11009 11008 11006 11005 11006 11007 11007 11007 11007 11007 11007 11007 11006 11005 11004 11003 11004 11003 11003 11002 11000 10999 10998 10998 10997 10996 10996 10995 10994 10993
10964 10966 10968 10971 10973 10973 10974 10975 10976 10976 10977 10980 10982 10982 10983 10983 10984 10985 10986 10986 10987 10987 10988 10988 10988 10988 10989 10990 10991 10992 10993 10994 10995 10995 10995 10996 10996 10996 10997 10998 10999 11000 11001 11002 11002 11003 11003 11003 11003 11004 11005 11006 11006 11006 11005 11005 11004 11002 11001 11001 11002 11002 11001 11001 11001 11003 11003 11003 11002 11001 11000 11000 10999 10999 10999 10998 10997 10995 10994 10994 10993 10992 10991 10991 10989
10958 10960 10963 10965 10967 10967 10968 10969 10970 10970 10972 10974 10976 10977 10977 10977 10978 10979 10980 10981 10981 10982 10983 10983 10982 10983 10985 10986 10987 10987 10987 10989 10989 10990 10990 10991 10991 10992 10992 10993 10994 10995 10996 10997 10998 10999 10999 11000 11000 11000 11001 11002 11002 11002 11002 11001 11000 10999 10999 10999 10999 10997 10995 10994 10996 10998 10999 10999 10998 10996 10996 10995 10995 10995 10995 10994 10993 10992 10991 10990 10989 10988 10987 10986 10985
10953 10955 10957 10959 10960 10961 10962 10963 10964 10966 10967 10969 10970 10971 10971 10971 10971 10973 10974 10975 10975 10977 10978 10977 10976 10977 10980 10981 10982 10982 10982 10983 10984 10985 10985 10985 10986 10987 10988 10988 10989 10990 10991 10992 10993 10994 10995 10995 10995 10995 10996 10997 10996 10997 10997 10996 10996 10995 10995 10995 10995 10992 10991 10990 10991 10993 10994 10993 10992 10992 10992 10992 10991 10991 10990 10989 10988 10987 10986 10985 10984 10983 10982 10981 10981
10946 10948 10950 10952 10953 10954 10956 10957 10959 10960 10961 10963 10964 10964 10965 10965 10966 10967 10968 10968 10969 10971 10972 10971 10970 10971 10973 10974 10976 10976 10976 10978 10980 10979 10979 10980 10981 10981 10982 10983 10983 10984 10984 10985 10987 10988 10989 10990 10990 10990 10991 10991 10991 10991 10991 10991 10990 10990 10990 10990 10989 10987 10987 10987 10987 10987 10987 10986 10986 10986 10986 10986 10986 10985 10985 10984 10983 10982 10981 10980 10978 10977 10977 10976 10975
10939 10940 10943 10945 10946 10948 10949 10950 10953 10954 10955 10957 10957 10956 10958 10959 10959 10960 10961 10962 10963 10964 10964 10964 10964 10965 10966 10967 10969 10970 10969 10971 10973 10973 10973 10974 10975 10975 10976 10976 10977 10977 10978 10979 10980 10981 10982 10984 10984 10984 10985 10985 10985 10985 10985 10985 10985 10984 10984 10984 10983 10981 10981 10982 10981 10981 10980 10979 10979 10979 10979 10979 10979 10978 10978 10977 10976 10974 10974 10974 10973 10972 10971 10970 10969
10931 10933 10936 10938 10939 10941 10942 10944 10947 10948 10949 10949 10949 10948 10949 10951 10952 10953 10955 10955 10956 10957 10957 10957 10958 10960 10960 10960 10962 10963 10963 10964 10966 10966 10967 10967 10968 10968 10969 10969 10970 10970 10970 10972 10973 10974 10975 10976 10977 10978 10978 10979 10979 10979 10979 10979 10979 10978 10977 10977 10976 10975 10975 10975 10975 10973 10972 10973 10972 10972 10971 10971 10971 10971 10971 10969 10967 10966 10967 10967 10966 10965 10964 10963 10962
10924 10926 10928 10930 10932 10933 10934 10936 10939 10941 10942 10942 10941 10941 10942 10945 10946 10947 10948 10949 10949 10950 10950 10951 10952 10953 10954 10954 10954 10955 10956 10956 10958 10959 10959 10959 10960 10961 10961 10962 10963 10963 10963 10964 10965 10966 10967 10969 10970 10971 10971 10972 10972 10972 10973 10973 10973 10972 10971 10970 10970 10969 10968 10968 10967 10966 10966 10967 10966 10963 10962 10963 10963 10963 10962 10961 10960 10959 10959 10959 10958 10957 10957 10956 10955
10915 10918 10920 10922 10925 10926 10927 10929 10931 10933 10933 10934 10934 10934 10936 10938 10939 10940 10941 10942 10943 10943 10944 10944 10944 10945 10946 10946 10946 10946 10947 10948 10950 10951 10952 10952 10952 10953 10953 10954 10956 10956 10956 10956 10957 10958 10960 10961 10963 10963 10964 10964 10964 10965 10965 10966 10967 10966 10965 10964 10964 10963 10962 10961 10960 10960 10961 10961 10958 10956 10956 10956 10955 10955 10954 10953 10952 10951 10950 10950 10950 10950 10949 10947 10947
10906 10909 10911 10914 10916 10918 10920 10921 10922 10924 10925 10927 10928 10928 10929 10930 10931 10932 10934 10935 10936 10936 10937 10937 10937 10937 10938 10938 10938 10938 10939 10940 10941 10942 10944 10944 10944 10945 10946 10946 10947 10948 10948 10949 10949 10950 10951 10953 10954 10955 10956 10956 10957 10957 10957 10958 10958 10959 10959 10958 10957 10956 10955 10954 10953 10953 10953 10952 10950 10950 10950 10949 10947 10947 10947 10946 10945 10943 10942 10941 10941 10942 10941 10939 10937
10896 10899 10902 10904 10907 10909 10911 10913 10914 10915 10917 10918 10920 10921 10921 10922 10923 10924 10925 10926 10927 10928 10929 10929 10930 10930 10930 10930 10930 10930 10931 10932 10932 10934 10935 10935 10935 10936 10937 10937 10938 10938 10940 10941 10942 10943 10943 10944 10945 10946 10947 10947 10948 10948 10949 10949 10949 10950 10950 10950 10949 10948 10948 10947 10946 10945 10945 10944 10943 10943 10943 10942 10939 10938 10939 10939 10937 10936 10934 10932 10932 10933 10933 10931 10929
10886 10889 10891 10894 10897 10899 10901 10903 10905 10906 10908 10909 10911 10912 10913 10913 10914 10915 10916 10917 10918 10920 10921 10921 10922 10922 10922 10922 10922 10922 10923 10924 10925 10925 10925 10925 10926 10926 10927 10928 10929 10930 10931 10932 10933 10934 10935 10935 10935 10936 10937 10938 10938 10938 10939 10939 10940 10941 10941 10941 10941 10940 10939 10938 10937 10936 10936 10936 10935 10935 10934 10933 10931 10931 10931 10930 10929 10928 10927 10924 10923 10923 10924 10924 10922
10876 10879 10881 10883 10886 10889 10891 10893 10895 10896 10898 10900 10901 10903 10904 10905 10905 10906 10907 10908 10909 10910 10911 10912 10913 10913 10913 10913 10913 10913 10914 10915 10916 10915 10914 10915 10917 10917 10918 10920 10920 10921 10921 10922 10923 10924 10925 10925 10926 10926 10928 10929 10929 10929 10929 10930 10930 10931 10931 10931 10931 10931 10931 10930 10928 10927 10927 10927 10926 10925 10925 10924 10923 10923 10922 10920 10920 10919 10918 10916 10914 10914 10915 10914 10913
10867 10869 10871 10873 10875 10878 10880 10882 10884 10886 10888 10890 10891 10892 10894 10895 10896 10897 10897 10898 10899 10900 10901 10902 10902 10903 10903 10903 10903 10903 10904 10905 10906 10906 10906 10907 10908 10908 10909 10910 10910 10911 10911 10912 10913 10914 10915 10915 10916 10917 10918 10919 10920 10920 10920 10920 10920 10920 10920 10921 10921 10921 10921 10920 10919 10918 10918 10917 10916 10916 10915 10915 10914 10913 10912 10911 10911 10910 10908 10907 10906 10905 10904 10903 10902
10856 10859 10860 10862 10864 10867 10869 10871 10873 10875 10877 10879 10880 10882 10883 10884 10886 10887 10887 10888 10889 10890 10891 10892 10892 10892 10893 10893 10894 10894 10894 10895 10896 10896 10896 10897 10898 10898 10898 10899 10900 10900 10901 10901 10902 10904 10904 10905 10906 10906 10907 10908 10910 10910 10911 10910 10910 10909 10909 10910 10910 10910 10910 10910 10909 10908 10908 10907 10906 10906 10905 10904 10904 10903 10902 10901 10902 10901 10900 10899 10897 10896 10895 10893 10892
10845 10847 10849 10851 10853 10855 10858 10860 10862 10864 10866 10868 10869 10870 10872 10873 10874 10876 10877 10877 10878 10879 10880 10881 10881 10882 10882 10882 10883 10883 10884 10884 10885 10885 10886 10887 10887 10888 10888 10888 10888 10889 10889 10889 10890 10891 10893 10894 10894 10895 10895 10896 10897 10898 10899 10900 10900 10899 10898 10898 10899 10899 10899 10899 10898 10897 10897 10897 10896 10895 10894 10893 10893 10893 10892 10891 10891 10891 10890 10889 10888 10887 10885 10883 10882
10834 10836 10838 10840 10842 10844 10846 10848 10850 10852 10854 10856 10858 10859 10861 10862 10863 10864 10865 10866 10866 10867 10867 10868 10869 10870 10871 10871 10872 10872 10872 10873 10873 10874 10874 10875 10876 10877 10878 10878 10878 10877 10877 10877 10877 10878 10880 10881 10882 10883 10883 10884 10885 10885 10886 10888 10888 10888 10888 10887 10887 10887 10888 10888 10887 10886 10885 10885 10884 10883 10882 10882 10882 10882 10881 10881 10880 10880 10879 10879 10878 10876 10874 10873 10874
10822 10824 10826 10828 10830 10833 10835 10837 10839 10841 10843 10845 10846 10847 10848 10849 10851 10852 10852 10853 10854 10855 10855 10856 10857 10857 10858 10859 10860 10860 10860 10860 10861 10861 10862 10862 10863 10864 10865 10866 10866 10866 10866 10865 10865 10865 10866 10867 10868 10869 10870 10871 10872 10873 10873 10874 10875 10876 10876 10876 10875 10875 10875 10875 10875 10874 10873 10873 10872 10871 10870 10870 10870 10870 10869 10869 10869 10868 10868 10867 10866 10863 10862 10863 10863
10810 10812 10814 10816 10818 10820 10822 10825 10827 10828 10830 10832 10834 10835 10835 10836 10837 10838 10839 10840 10841 10842 10843 10844 10845 10845 10846 10846 10847 10847 10848 10848 10848 10848 10849 10849 10850 10850 10851 10852 10852 10853 10853 10853 10852 10852 10852 10852 10852 10854 10855 10856 10857 10858 10859 10860 10861 10862 10863 10863 10863 10862 10862 10862 10862 10861 10860 10860 10859 10859 10858 10857 10857 10857 10857 10857 10856 10855 10855 10854 10852 10850 10849 10850 10850
10797 10799 10802 10804 10806 10808 10810 10812 10813 10815 10816 10818 10820 10821 10822 10823 10824 10825 10826 10827 10828 10829 10830 10832 10833 10834 10834 10835 10835 10835 10835 10835 10835 10835 10835 10836 10836 10837 10837 10838 10838 10838 10839 10839 10839 10839 10838 10838 10838 10838 10838 10839 10840 10842 10843 10844 10845 10846 10848 10849 10849 10848 10848 10848 10848 10848 10847 10846 10846 10845 10844 10843 10842 10842 10842 10842 10842 10841 10841 10840 10839 10837 10835 10835 10835
10784 10786 10789 10791 10793 10795 10797 10798 10800 10801 10803 10804 10805 10806 10808 10809 10810 10811 10813 10814 10815 10816 10818 10819 10820 10821 10822 10822 10823 10823 10822 10822 10822 10822 10822 10822 10822 10822 10823 10823 10823 10824 10824 10824 10825 10825 10824 10824 10824 10823 10823 10823 10824 10825 10826 10827 10828 10829 10831 10832 10833 10833 10833 10833 10833 10832 10832 10832 10832 10831 10831 10830 10828 10827 10827 10827 10827 10826 10825 10824 10823 10821 10820 10820 10819
10771 10773 10775 10777 10779 10781 10783 10784 10786 10787 10788 10790 10791 10793 10794 10795 10796 10798 10799 10800 10801 10803 10804 10805 10806 10807 10807 10808 10809 10809 10809 10809 10808 10808 10808 10808 10807 10808 10808 10808 10808 10809 10809 10809 10810 10810 10810 10810 10810 10809 10809 10809 10809 10809 10809 10809 10810 10811 10813 10814 10815 10817 10817 10817 10817 10817 10817 10816 10816 10816 10816 10816 10815 10813 10812 10811 10811 10811 10810 10809 10808 10805 10804 10803 10803
10758 10760 10761 10763 10764 10766 10768 10770 10772 10773 10774 10776 10777 10779 10780 10781 10782 10783 10784 10785 10786 10787 10788 10790 10792 10792 10792 10793 10793 10794 10794 10794 10794 10794 10793 10793 10793 10793 10793 10793 10793 10794 10794 10794 10794 10794 10794 10794 10795 10795 10795 10795 10794 10794 10794 10794 10794 10794 10795 10796 10798 10799 10800 10801 10801 10801 10801 10801 10800 10800 10800 10800 10799 10798 10797 10796 10794 10794 10794 10793 10792 10791 10789 10787 10786
10744 10746 10747 10748 10750 10752 10753 10755 10757 10759 10760 10761 10762 10763 10764 10765 10766 10767 10769 10770 10770 10770 10771 10773 10774 10776 10777 10778 10778 10778 10778 10778 10778 10778 10779 10779 10780 10780 10779 10779 10779 10779 10778 10778 10778 10778 10778 10778 10778 10779 10779 10779 10780 10780 10780 10780 10780 10779 10780 10780 10781 10782 10783 10784 10785 10785 10785 10785 10785 10785 10785 10784 10782 10781 10781 10780 10778 10777 10776 10775 10774 10774 10773 10771 10770
10730 10732 10733 10735 10736 10738 10739 10741 10742 10743 10744 10745 10746 10746 10747 10748 10748 10749 10751 10753 10754 10755 10755 10756 10757 10758 10760 10762 10762 10762 10761 10762 10762 10763 10764 10764 10764 10765 10765 10765 10765 10764 10764 10763 10763 10763 10762 10762 10762 10762 10762 10763 10763 10764 10765 10765 10765 10765 10765 10765 10765 10765 10765 10766 10767 10767 10768 10768 10768 10768 10768 10767 10765 10764 10763 10762 10761 10759 10758 10757 10756 10756 10755 10754 10753
10716 10718 10719 10721 10722 10723 10724 10725 10726 10727 10728 10728 10729 10730 10731 10732 10732 10733 10733 10735 10736 10738 10739 10740 10741 10741 10742 10744 10745 10745 10744 10745 10746 10747 10747 10747 10747 10748 10748 10749 10749 10749 10748 10748 10747 10747 10747 10747 10746 10747 10747 10747 10747 10747 10748 10749 10749 10749 10749 10749 10750 10749 10749 10749 10750 10750 10750 10750 10749 10749 10748 10748 10747 10746 10744 10744 10743 10741 10740 10739 10738 10737 10737 10736 10735
10702 10703 10704 10705 10706 10706 10707 10708 10709 10710 10711 10712 10713 10714 10715 10716 10716 10716 10716 10717 10718 10719 10720 10721 10723 10724 10725 10726 10727 10726 10725 10726 10728 10729 10729 10729 10730 10730 10730 10730 10730 10730 10730 10730 10730 10730 10731 10731 10731 10731 10731 10731 10731 10732 10732 10732 10733 10733 10733 10733 10733 10733 10732 10732 10732 10732 10732 10732 10732 10732 10731 10729 10728 10727 10726 10726 10725 10725 10724 10723 10721 10720 10719 10718 10717
10686 10687 10688 10688 10689 10690 10691 10692 10693 10694 10695 10695 10696 10697 10699 10699 10699 10699 10699 10699 10699 10700 10700 10701 10703 10706 10707 10708 10708 10707 10705 10705 10707 10709 10710 10711 10711 10711 10711 10711 10711 10710 10710 10711 10711 10711 10712 10712 10713 10713 10713 10714 10714 10714 10714 10714 10714 10715 10715 10715 10716 10716 10715 10715 10715 10715 10714 10714 10714 10714 10713 10711 10710 10708 10707 10706 10705 10706 10706 10705 10704 10703 10701 10700 10698
10670 10671 10672 10673 10674 10675 10676 10677 10678 10678 10679 10679 10679 10680 10680 10681 10681 10681 10681 10681 10681 10680 10680 10680 10683 10687 10689 10688 10687 10686 10685 10684 10686 10689 10690 10691 10692 10692 10691 10691 10691 10690 10690 10690 10690 10691 10691 10692 10693 10694 10694 10694 10694 10694 10694 10695 10695 10695 10695 10696 10696 10696 10696 10696 10696 10696 10695 10695 10694 10694 10694 10692 10691 10689 10687 10686 10685 10684 10684 10684 10683 10682 10680 10679 10678
10656 10657 10658 10659 10659 10660 10661 10662 10662 10663 10663 10663 10663 10662 10662 10663 10663 10663 10663 10663 10662 10661 10660 10660 10662 10666 10668 10668 10667 10666 10664 10664 10666 10668 10668 10668 10670 10671 10671 10670 10670 10670 10669 10669 10669 10669 10670 10671 10672 10672 10672 10672 10673 10672 10673 10673 10674 10674 10674 10674 10674 10674 10674 10675 10675 10675 10674 10673 10673 10673 10672 10672 10670 10669 10667 10666 10664 10663 10662 10661 10660 10659 10658 10657 10656
10643 10644 10644 10645 10645 10645 10646 10646 10646 10647 10646 10646 10646 10646 10645 10644 10644 10644 10644 10644 10643 10643 10642 10641 10641 10643 10645 10647 10647 10646 10644 10643 10645 10646 10646 10646 10647 10648 10648 10649 10648 10648 10648 10647 10647 10647 10647 10648 10649 10649 10649 10649 10650 10650 10649 10649 10650 10650 10650 10650 10651 10651 10651 10652 10653 10652 10652 10651 10650 10650 10650 10649 10649 10647 10646 10645 10644 10642 10641 10640 10639 10637 10636 10635 10634
10631 10631 10631 10631 10631 10631 10631 10630 10630 10630 10630 10630 10629 10629 10628 10627 10626 10626 10626 10626 10625 10624 10623 10623 10622 10621 10623 10624 10625 10624 10623 10623 10623 10624 10624 10624 10624 10625 10625 10626 10626 10625 10625 10625 10624 10624 10623 10623 10624 10625 10625 10625 10625 10625 10625 10624 10625 10625 10625 10625 10626 10626 10626 10627 10627 10628 10629 10629 10628 10627 10627 10627 10626 10625 10624 10623 10622 10621 10620 10619 10618 10617 10616 10615 10613
10618 10618 10618 10618 10617 10617 10616 10616 10615 10615 10614 10613 10613 10612 10611 10610 10610 10609 10609 10608 10607 10605 10604 10604 10603 10602 10602 10602 10602 10602 10601 10601 10601 10601 10601 10601 10601 10602 10603 10603 10603 10602 10602 10601 10601 10600 10599 10598 10599 10599 10600 10600 10600 10599 10599 10599 10600 10600 10600 10600 10601 10601 10602 10601 10601 10601 10603 10603 10604 10604 10604 10604 10603 10602 10602 10601 10600 10599 10598 10597 10597 10596 10595 10594 10593
10606 10605 10605 10604 10604 10603 10603 10602 10601 10601 10600 10599 10598 10596 10595 10594 10594 10593 10592 10591 10589 10587 10585 10584 10584 10583 10582 10581 10580 10580 10579 10578 10578 10578 10579 10578 10578 10578 10578 10578 10578 10578 10578 10577 10576 10574 10573 10573 10573 10574 10574 10574 10574 10574 10573 10573 10574 10575 10575 10574 10575 10575 10576 10576 10575 10576 10576 10577 10577 10577 10578 10578 10578 10578 10578 10577 10577 10576 10575 10574 10573 10573 10572 10571 10570
10594 10594 10593 10592 10592 10591 10590 10589 10588 10587 10586 10585 10584 10582 10580 10578 10577 10576 10575 10573 10571 10569 10567 10565 10563 10562 10561 10560 10559 10559 10558 10557 10556 10556 10556 10555 10554 10554 10554 10553 10553 10553 10553 10552 10551 10549 10547 10547 10547 10548 10548 10547 10547 10547 10546 10546 10547 10548 10549 10549 10549 10548 10548 10548 10549 10550 10551 10551 10551 10551 10551 10551 10552 10552 10552 10552 10552 10552 10551 10551 10550 10550 10549 10548 10546
10584 10584 10583 10582 10580 10579 10578 10576 10575 10573 10572 10570 10569 10567 10565 10562 10560 10559 10557 10555 10552 10551 10549 10547 10544 10542 10541 10541 10540 10539 10538 10537 10535 10533 10532 10531 10530 10530 10529 10529 10529 10528 10528 10527 10527 10526 10524 10522 10522 10522 10522 10521 10521 10520 10520 10519 10520 10520 10521 10522 10522 10521 10520 10520 10521 10523 10524 10525 10525 10525 10525 10525 10525 10526 10526 10527 10526 10526 10526 10526 10526 10525 10525 10524 10523
10575 10574 10572 10570 10569 10567 10565 10563 10562 10560 10558 10556 10555 10553 10550 10547 10545 10542 10540 10537 10534 10533 10531 10529 10526 10524 10523 10522 10521 10520 10518 10516 10514 10513 10511 10510 10509 10508 10507 10506 10506 10505 10503 10502 10502 10502 10501 10499 10498 10497 10497 10496 10495 10495 10494 10494 10494 10494 10494 10495 10495 10495 10495 10496 10496 10496 10498 10499 10499 10499 10499 10499 10499 10500 10500 10501 10501 10501 10501 10501 10501 10501 10500 10500 10499
10565 10563 10561 10559 10557 10555 10553 10551 10549 10547 10544 10542 10540 10538 10536 10533 10530 10527 10524 10520 10517 10515 10513 10511 10509 10507 10505 10503 10501 10499 10498 10496 10494 10493 10492 10490 10489 10487 10486 10485 10484 10483 10482 10480 10479 10479 10479 10478 10476 10476 10475 10474 10473 10471 10470 10469 10470 10470 10470 10470 10471 10471 10472 10472 10473 10473 10473 10473 10474 10475 10475 10475 10475 10476 10476 10477 10477 10478 10478 10478 10477 10478 10477 10477 10477